STARLINK-34207, 64333

Orbit data source: Space-Track

STARLINK-34207, 64333 is a payload satellite owned by SpaceX/Seattle (US) in LEO that was launched on Tue, 10 Jun 2025 UTC via an FALCON 9 launch vehicle from the Air Force Eastern Test Range (AFETR). Payload-class satellites include a variety of spacecraft equipped with specific instruments for various scientific and technological missions. These include communications satellites like Starlink; space stations such as the ISS; scientific satellites like the Hubble; Earth observation satellites from companies like Planet Labs, Umbra, and HawkEye 360; GPS; miniature CubeSats for education and research; and military/defense satellites.

Loading next visibility...
Identifier
64333, 2025-124S
Orbit
LEO
Country
Flag of USUS
Related business
Manufacturer
SpaceX/Seattle
Mission
Operational Commercial Communications
Bus & Motor
STARLINK V2MO, Unknown motor
Mass
575 kg wet, ~530 kg dry
Launch date (UTC)
2025-06-10 (11 months ago)
Launch vehicle
FALCON 9
Launch site
Air Force Eastern Test Range (AFETR)
Object type
Payload
Rocket body
Debris
Shape & HBR
Box + 2 Pan, 17.7 m
Radar Cross Section
36.964 m², Large (>1 m²)

Expand to show TLE details & history
Last TLE update: 10 hours ago

TLE from 10 hours ago
0 STARLINK-34207
1 64333U 25124S   26140.51442025  .00010160  00000-0  37812-3 0  9991
2 64333  43.0014  76.2059 0001514 272.8657  87.2021 15.27589874 52766
Epoch: 2026-05-20T12:20Z
TLE epoch observation values (Epoch: 2026-05-20T12:20:45.909Z)
Latitude
-0.00005°
Longitude
12.84168°
Altitude
482.745 km
Speed
7.626 km/s
True Right ascension
05h 04m 49s
True Declination
0° 00' 00"
Sunlit
Object was in daylight at epoch
Visualization orbit readout
Latitude
Unknown
Longitude
Unknown
Altitude
Unknown
Speed
Unknown
Apparent Right ascension
Unknown
Apparent Declination
Unknown
Sunlit
N/A
Visualization observer readout
Local Sidereal Time
07:38:49
Azimuth
Unknown
Elevation
Unknown
Doppler factor
Unknown
Orbital elements
Apogee altitude
486.004 km
Perigee altitude
483.925 km
Semi-major axis
6,863.101 km
Eccentricity
0.00015
Inclination
43.0014°
RAAN
76.2059°
Arg. of periapsis
272.8657°
True anomaly
87.21943°
Mean anomaly
87.2021°
Eccentric anomaly
87.21076°
Mean motion
3.81735 °/min
Orbital period
94.31 mins
BSTAR
0.00037812
Loading maneuver chart data...
Computing Atmospheric mass density...
Loading historical data...
Loading historical data...
Loading historical data...
Loading historical data...
Loading historical data...
Loading historical data...
Loading historical data...

Documentation

Showing up to 5 results
|